Ignacio, CO

11:37 PM MST on February 27, 2017 (GMT -0700)
Durango-La Plata County

Weather History for KDRO - May, 2013

Change the Weather History Date:

Thursday, May 2, 2013

  Actual Average Record
Temperature  
Mean Temperature 42 °F 49 °F  
Max Temperature 59 °F 65 °F 77 °F (1971)
Min Temperature 24 °F 32 °F 19 °F (2011)
Degree Days  
Heating Degree Days 23 16  
Month to date heating degree days 36 16  
Since 1 July heating degree days 6776 6652  
Cooling Degree Days 0 0  
Month to date cooling degree days 0 0  
Year to date cooling degree days 0 0  
Moisture  
Dew Point 2 °F    
Average Humidity 23    
Maximum Humidity 37    
Minimum Humidity 9    
Precipitation  
Precipitation 0.00 in 0.05 in 0.51 in (1990)
Month to date precipitation 0.00 0.05  
Year to date precipitation 3.28 4.68  
Sea Level Pressure  
Sea Level Pressure 30.34 in    
Wind  
Wind Speed 7 mph (WNW)    
Max Wind Speed 20 mph    
Max Gust Speed 26 mph    
Visibility 10 miles    
Events      
T = Trace of Precipitation, MM = Missing Value Source: NWS Daily Summary

Daily Weather History Graph

Daily Weather History Graph

Search for Another Location

Airport or City:

Trip Planner

Search our weather history database for the weather conditions in past years. The results will help you decide how hot, cold, wet, or windy it might be!

Date:

Astronomy

May. 02, 2013 Rise Set
Actual Time 6:14 AM MDT 8:01 PM MDT
Civil Twilight 5:46 AM MDT 8:29 PM MDT
Nautical Twilight 5:13 AM MDT 9:03 PM MDT
Astronomical Twilight 4:36 AM MDT 9:39 PM MDT
Moon 1:54 AM MDT (5/2) 1:03 PM MDT (5/2)
Length of Visible Light 14h 42m
Length of Day
13h 46m
Waning Gibbous, 47% of the Moon is Illuminated
May 2
Waning Gibbous
May 9
New
May 17
First Quarter
May 24
Full
May 31
Last Quarter

Hourly Weather History & Observations

Time (MDT) Temp. Windchill Dew Point Humidity Pressure Visibility Wind Dir Wind Speed Gust Speed Precip Events Conditions
12:53 AM 37.0 °F 31.0 °F 6.1 °F 28% 30.20 in 10.0 mi North 8.1 mph - N/A   Clear
1:53 AM 39.0 °F 30.6 °F 8.1 °F 28% 30.22 in 10.0 mi NNW 15.0 mph - N/A   Clear
2:53 AM 36.0 °F 31.1 °F 6.1 °F 29% 30.25 in 10.0 mi North 5.8 mph - N/A   Clear
3:53 AM 30.9 °F 27.5 °F 5.0 °F 33% 30.28 in 10.0 mi NNW 3.5 mph - N/A   Clear
4:53 AM 27.0 °F - 1.9 °F 34% 30.32 in 10.0 mi Calm Calm - N/A   Clear
5:53 AM 26.1 °F 18.4 °F 1.9 °F 35% 30.37 in 10.0 mi North 6.9 mph - N/A   Clear
6:53 AM 26.1 °F - 3.0 °F 37% 30.42 in 10.0 mi Calm Calm - N/A   Clear
7:53 AM 33.1 °F - 5.0 °F 31% 30.44 in 10.0 mi Calm Calm - N/A   Clear
8:53 AM 42.1 °F - 1.0 °F 18% 30.44 in 10.0 mi Calm Calm - N/A   Clear
9:53 AM 45.0 °F - -5.1 °F 12% 30.41 in 10.0 mi Calm Calm - N/A   Clear
10:53 AM 46.9 °F - -2.9 °F 13% 30.41 in 10.0 mi West 3.5 mph - N/A   Clear
11:53 AM 48.9 °F - -5.1 °F 11% 30.40 in 10.0 mi Calm Calm - N/A   Clear
12:53 PM 55.0 °F - -2.0 °F 10% 30.36 in 10.0 mi West 10.4 mph - N/A   Clear
1:53 PM 55.9 °F - 1.9 °F 11% 30.33 in 10.0 mi WSW 15.0 mph 23.0 mph N/A   Clear
2:53 PM 57.0 °F - 3.9 °F 12% 30.32 in 10.0 mi SW 13.8 mph 24.2 mph N/A   Clear
3:53 PM 57.9 °F - 5.0 °F 12% 30.32 in 10.0 mi WSW 16.1 mph 23.0 mph N/A   Clear
4:53 PM 57.9 °F - 3.9 °F 11% 30.32 in 10.0 mi SW 16.1 mph 21.9 mph N/A   Clear
5:53 PM 57.0 °F - 3.0 °F 11% 30.33 in 10.0 mi SW 15.0 mph 20.7 mph N/A   Clear
6:53 PM 55.0 °F - 1.9 °F 12% 30.33 in 10.0 mi SSW 12.7 mph 21.9 mph N/A   Clear
7:53 PM 51.1 °F - -0.0 °F 12% 30.31 in 10.0 mi South 9.2 mph - N/A   Clear
8:53 PM 46.9 °F - 1.0 °F 15% 30.29 in 10.0 mi Variable 6.9 mph - N/A   Clear
9:53 PM 41.0 °F 35.8 °F 1.9 °F 20% 30.33 in 10.0 mi ENE 8.1 mph - N/A   Clear
10:53 PM 37.0 °F 33.3 °F 3.0 °F 24% 30.34 in 10.0 mi North 4.6 mph - N/A   Clear
11:53 PM 36.0 °F 33.3 °F 5.0 °F 27% 30.33 in 10.0 mi NNE 3.5 mph - N/A   Clear